Year,Month,Day,Hour,Minute,Value (Times are PST for temperature in C)
2017,08,15,00,00,15.90
2017,08,15,00,01,15.90
2017,08,15,00,02,15.80
2017,08,15,00,03,15.80
2017,08,15,00,04,15.80
2017,08,15,00,05,15.80
2017,08,15,00,06,15.80
2017,08,15,00,07,15.80
2017,08,15,00,08,15.80
2017,08,15,00,09,15.70
2017,08,15,00,10,15.70
2017,08,15,00,11,15.70
2017,08,15,00,12,15.70
2017,08,15,00,13,15.70
2017,08,15,00,14,15.70
2017,08,15,00,15,15.70
2017,08,15,00,16,15.60
2017,08,15,00,17,15.60
2017,08,15,00,18,15.60
2017,08,15,00,19,15.60
2017,08,15,00,20,15.60
2017,08,15,00,21,15.60
2017,08,15,00,22,15.60
2017,08,15,00,23,15.60
2017,08,15,00,24,15.50
2017,08,15,00,25,15.50
2017,08,15,00,26,15.50
2017,08,15,00,27,15.50
2017,08,15,00,28,15.40
2017,08,15,00,29,15.40
2017,08,15,00,30,15.40
2017,08,15,00,31,15.40
2017,08,15,00,32,15.30
2017,08,15,00,33,15.30
2017,08,15,00,34,15.30
2017,08,15,00,35,15.30
2017,08,15,00,36,15.20
2017,08,15,00,37,15.20
2017,08,15,00,38,15.10
2017,08,15,00,39,15.00
2017,08,15,00,40,15.00
2017,08,15,00,41,15.00
2017,08,15,00,42,15.00
2017,08,15,00,43,15.00
2017,08,15,00,44,15.00
2017,08,15,00,45,15.00
2017,08,15,00,46,14.90
2017,08,15,00,47,14.80
2017,08,15,00,48,14.80
2017,08,15,00,49,14.80
2017,08,15,00,50,14.70
2017,08,15,00,51,14.70
2017,08,15,00,52,14.60
2017,08,15,00,53,14.60
2017,08,15,00,54,14.60
2017,08,15,00,55,14.60
2017,08,15,00,56,14.50
2017,08,15,00,57,14.50
2017,08,15,00,58,14.50
2017,08,15,00,59,14.50
2017,08,15,01,00,14.40
2017,08,15,01,01,14.40
2017,08,15,01,02,14.40
2017,08,15,01,03,14.40
2017,08,15,01,04,14.30
2017,08,15,01,05,14.30
2017,08,15,01,06,14.30
2017,08,15,01,07,14.30
2017,08,15,01,08,14.30
2017,08,15,01,09,14.30
2017,08,15,01,10,14.30
2017,08,15,01,11,14.20
2017,08,15,01,12,14.20
2017,08,15,01,13,14.20
2017,08,15,01,14,14.20
2017,08,15,01,15,14.20
2017,08,15,01,16,14.20
2017,08,15,01,17,14.20
2017,08,15,01,18,14.20
2017,08,15,01,19,14.10
2017,08,15,01,20,14.10
2017,08,15,01,21,14.10
2017,08,15,01,22,14.10
2017,08,15,01,23,14.10
2017,08,15,01,24,14.10
2017,08,15,01,25,14.00
2017,08,15,01,26,14.00
2017,08,15,01,27,14.00
2017,08,15,01,28,14.00
2017,08,15,01,29,14.10
2017,08,15,01,30,14.10
2017,08,15,01,31,14.10
2017,08,15,01,32,14.10
2017,08,15,01,33,14.10
2017,08,15,01,34,14.10
2017,08,15,01,35,14.10
2017,08,15,01,36,14.10
2017,08,15,01,37,14.10
2017,08,15,01,38,14.20
2017,08,15,01,39,14.20
2017,08,15,01,40,14.20
2017,08,15,01,41,14.20
2017,08,15,01,42,14.10
2017,08,15,01,43,14.10
2017,08,15,01,44,14.10
2017,08,15,01,45,14.10
2017,08,15,01,46,14.10
2017,08,15,01,47,14.10
2017,08,15,01,48,14.10
2017,08,15,01,49,14.10
2017,08,15,01,50,14.10
2017,08,15,01,51,14.10
2017,08,15,01,52,14.10
2017,08,15,01,53,14.10
2017,08,15,01,54,14.20
2017,08,15,01,55,14.20
2017,08,15,01,56,14.20
2017,08,15,01,57,14.20
2017,08,15,01,58,14.20
2017,08,15,01,59,14.30
2017,08,15,02,00,14.30
2017,08,15,02,01,14.30
2017,08,15,02,02,14.30
2017,08,15,02,03,14.30
2017,08,15,02,04,14.30
2017,08,15,02,05,14.30
2017,08,15,02,06,14.30
2017,08,15,02,07,14.30
2017,08,15,02,08,14.30
2017,08,15,02,09,14.30
2017,08,15,02,10,14.30
2017,08,15,02,11,14.30
2017,08,15,02,12,14.30
2017,08,15,02,13,14.30
2017,08,15,02,14,14.30
2017,08,15,02,15,14.30
2017,08,15,02,16,14.30
2017,08,15,02,17,14.30
2017,08,15,02,18,14.30
2017,08,15,02,19,14.20
2017,08,15,02,20,14.20
2017,08,15,02,21,14.20
2017,08,15,02,22,14.20
2017,08,15,02,23,14.20
2017,08,15,02,24,14.30
2017,08,15,02,25,14.30
2017,08,15,02,26,14.40
2017,08,15,02,27,14.40
2017,08,15,02,28,14.40
2017,08,15,02,29,14.40
2017,08,15,02,30,14.40
2017,08,15,02,31,14.40
2017,08,15,02,32,14.30
2017,08,15,02,33,14.30
2017,08,15,02,34,14.30
2017,08,15,02,35,14.30
2017,08,15,02,36,14.30
2017,08,15,02,37,14.30
2017,08,15,02,38,14.30
2017,08,15,02,39,14.30
2017,08,15,02,40,14.30
2017,08,15,02,41,14.30
2017,08,15,02,42,14.30
2017,08,15,02,43,14.30
2017,08,15,02,44,14.30
2017,08,15,02,45,14.20
2017,08,15,02,46,14.20
2017,08,15,02,47,14.20
2017,08,15,02,48,14.20
2017,08,15,02,49,14.10
2017,08,15,02,50,14.10
2017,08,15,02,51,14.10
2017,08,15,02,52,14.10
2017,08,15,02,53,14.10
2017,08,15,02,54,14.00
2017,08,15,02,55,14.00
2017,08,15,02,56,14.00
2017,08,15,02,57,13.90
2017,08,15,02,58,13.90
2017,08,15,02,59,13.90
2017,08,15,03,00,13.80
2017,08,15,03,01,13.80
2017,08,15,03,02,13.80
2017,08,15,03,03,13.80
2017,08,15,03,04,13.80
2017,08,15,03,05,13.80
2017,08,15,03,06,13.80
2017,08,15,03,07,13.80
2017,08,15,03,08,13.90
2017,08,15,03,09,13.90
2017,08,15,03,10,14.00
2017,08,15,03,11,14.00
2017,08,15,03,12,14.10
2017,08,15,03,13,14.10
2017,08,15,03,14,14.10
2017,08,15,03,15,14.10
2017,08,15,03,16,14.10
2017,08,15,03,17,14.10
2017,08,15,03,18,14.00
2017,08,15,03,19,14.00
2017,08,15,03,20,13.90
2017,08,15,03,21,13.90
2017,08,15,03,22,13.90
2017,08,15,03,23,13.90
2017,08,15,03,24,13.80
2017,08,15,03,25,13.80
2017,08,15,03,26,13.80
2017,08,15,03,27,13.80
2017,08,15,03,28,13.80
2017,08,15,03,29,13.80
2017,08,15,03,30,13.80
2017,08,15,03,31,13.70
2017,08,15,03,32,13.70
2017,08,15,03,33,13.70
2017,08,15,03,34,13.70
2017,08,15,03,35,13.70
2017,08,15,03,36,13.70
2017,08,15,03,37,13.60
2017,08,15,03,38,13.60
2017,08,15,03,39,13.60
2017,08,15,03,40,13.60
2017,08,15,03,41,13.60
2017,08,15,03,42,13.60
2017,08,15,03,43,13.50
2017,08,15,03,44,13.50
2017,08,15,03,45,13.40
2017,08,15,03,46,13.40
2017,08,15,03,47,13.40
2017,08,15,03,48,13.40
2017,08,15,03,49,13.30
2017,08,15,03,50,13.30
2017,08,15,03,51,13.30
2017,08,15,03,52,13.30
2017,08,15,03,53,13.30
2017,08,15,03,54,13.30
2017,08,15,03,55,13.30
2017,08,15,03,56,13.30
2017,08,15,03,57,13.30
2017,08,15,03,58,13.20
2017,08,15,03,59,13.20
2017,08,15,04,00,13.20
2017,08,15,04,01,13.20
2017,08,15,04,02,13.10
2017,08,15,04,03,13.10
2017,08,15,04,04,13.00
2017,08,15,04,05,12.90
2017,08,15,04,06,12.90
2017,08,15,04,07,12.80
2017,08,15,04,08,12.80
2017,08,15,04,09,12.70
2017,08,15,04,10,12.70
2017,08,15,04,11,12.70
2017,08,15,04,12,12.70
2017,08,15,04,13,12.70
2017,08,15,04,14,12.70
2017,08,15,04,15,12.70
2017,08,15,04,16,12.70
2017,08,15,04,17,12.70
2017,08,15,04,18,12.60
2017,08,15,04,19,12.60
2017,08,15,04,20,12.60
2017,08,15,04,21,12.60
2017,08,15,04,22,12.60
2017,08,15,04,23,12.60
2017,08,15,04,24,12.60
2017,08,15,04,25,12.60
2017,08,15,04,26,12.50
2017,08,15,04,27,12.50
2017,08,15,04,28,12.50
2017,08,15,04,29,12.50
2017,08,15,04,30,12.50
2017,08,15,04,31,12.50
2017,08,15,04,32,12.40
2017,08,15,04,33,12.40
2017,08,15,04,34,12.40
2017,08,15,04,35,12.40
2017,08,15,04,36,12.40
2017,08,15,04,37,12.40
2017,08,15,04,38,12.50
2017,08,15,04,39,12.50
2017,08,15,04,40,12.50
2017,08,15,04,41,12.50
2017,08,15,04,42,12.50
2017,08,15,04,43,12.60
2017,08,15,04,44,12.60
2017,08,15,04,45,12.60
2017,08,15,04,46,12.60
2017,08,15,04,47,12.60
2017,08,15,04,48,12.60
2017,08,15,04,49,12.70
2017,08,15,04,50,12.70
2017,08,15,04,51,12.80
2017,08,15,04,52,12.80
2017,08,15,04,53,12.80
2017,08,15,04,54,12.90
2017,08,15,04,55,12.90
2017,08,15,04,56,12.90
2017,08,15,04,57,12.90
2017,08,15,04,58,12.90
2017,08,15,04,59,12.90
2017,08,15,05,00,13.00
2017,08,15,05,01,13.00
2017,08,15,05,02,13.00
2017,08,15,05,03,12.90
2017,08,15,05,04,12.90
2017,08,15,05,05,12.90
2017,08,15,05,06,12.90
2017,08,15,05,07,12.80
2017,08,15,05,08,12.80
2017,08,15,05,09,12.80
2017,08,15,05,10,12.80
2017,08,15,05,11,12.70
2017,08,15,05,12,12.70
2017,08,15,05,13,12.60
2017,08,15,05,14,12.50
2017,08,15,05,15,12.50
2017,08,15,05,16,12.40
2017,08,15,05,17,12.30
2017,08,15,05,18,12.30
2017,08,15,05,19,12.20
2017,08,15,05,20,12.20
2017,08,15,05,21,12.20
2017,08,15,05,22,12.20
2017,08,15,05,23,12.10
2017,08,15,05,24,12.10
2017,08,15,05,25,12.10
2017,08,15,05,26,12.00
2017,08,15,05,27,12.00
2017,08,15,05,28,12.00
2017,08,15,05,29,12.00
2017,08,15,05,30,12.00
2017,08,15,05,31,12.00
2017,08,15,05,32,12.00
2017,08,15,05,33,12.00
2017,08,15,05,34,12.00
2017,08,15,05,35,12.10
2017,08,15,05,36,12.10
2017,08,15,05,37,12.10
2017,08,15,05,38,12.10
2017,08,15,05,39,12.10
2017,08,15,05,40,12.20
2017,08,15,05,41,12.20
2017,08,15,05,42,12.20
2017,08,15,05,43,12.10
2017,08,15,05,44,12.10
2017,08,15,05,45,12.10
2017,08,15,05,46,12.00
2017,08,15,05,47,12.00
2017,08,15,05,48,11.90
2017,08,15,05,49,11.90
2017,08,15,05,50,11.90
2017,08,15,05,51,11.90
2017,08,15,05,52,11.80
2017,08,15,05,53,11.80
2017,08,15,05,54,11.80
2017,08,15,05,55,11.80
2017,08,15,05,56,11.80
2017,08,15,05,57,11.80
2017,08,15,05,58,11.70
2017,08,15,05,59,11.70
2017,08,15,06,00,11.70
2017,08,15,06,01,11.70
2017,08,15,06,02,11.70
2017,08,15,06,03,11.60
2017,08,15,06,04,11.60
2017,08,15,06,05,11.60
2017,08,15,06,06,11.60
2017,08,15,06,07,11.60
2017,08,15,06,08,11.60
2017,08,15,06,09,11.60
2017,08,15,06,10,11.60
2017,08,15,06,11,11.60
2017,08,15,06,12,11.60
2017,08,15,06,13,11.60
2017,08,15,06,14,11.60
2017,08,15,06,15,11.60
2017,08,15,06,16,11.60
2017,08,15,06,17,11.70
2017,08,15,06,18,11.70
2017,08,15,06,19,11.70
2017,08,15,06,20,11.70
2017,08,15,06,21,11.70
2017,08,15,06,22,11.80
2017,08,15,06,23,11.80
2017,08,15,06,24,11.70
2017,08,15,06,25,11.70
2017,08,15,06,26,11.70
2017,08,15,06,27,11.70
2017,08,15,06,28,11.70
2017,08,15,06,29,11.70
2017,08,15,06,30,11.70
2017,08,15,06,31,11.70
2017,08,15,06,32,11.70
2017,08,15,06,33,11.70
2017,08,15,06,34,11.70
2017,08,15,06,35,11.70
2017,08,15,06,36,11.70
2017,08,15,06,37,11.70
2017,08,15,06,38,11.60
2017,08,15,06,39,11.60
2017,08,15,06,40,11.60
2017,08,15,06,41,11.50
2017,08,15,06,42,11.50
2017,08,15,06,43,11.50
2017,08,15,06,44,11.40
2017,08,15,06,45,11.40
2017,08,15,06,46,11.40
2017,08,15,06,47,11.40
2017,08,15,06,48,11.40
2017,08,15,06,49,11.40
2017,08,15,06,50,11.40
2017,08,15,06,51,11.40
2017,08,15,06,52,11.40
2017,08,15,06,53,11.40
2017,08,15,06,54,11.40
2017,08,15,06,55,11.40
2017,08,15,06,56,11.40
2017,08,15,06,57,11.40
2017,08,15,06,58,11.50
2017,08,15,06,59,11.50
2017,08,15,07,00,11.50
2017,08,15,07,01,11.60
2017,08,15,07,02,11.60
2017,08,15,07,03,11.70
2017,08,15,07,04,11.80
2017,08,15,07,05,11.90
2017,08,15,07,06,12.00
2017,08,15,07,07,12.20
2017,08,15,07,08,12.30
2017,08,15,07,09,12.40
2017,08,15,07,10,12.50
2017,08,15,07,11,12.60
2017,08,15,07,12,12.70
2017,08,15,07,13,12.80
2017,08,15,07,14,12.90
2017,08,15,07,15,12.90
2017,08,15,07,16,12.90
2017,08,15,07,17,13.00
2017,08,15,07,18,13.10
2017,08,15,07,19,13.10
2017,08,15,07,20,13.20
2017,08,15,07,21,13.20
2017,08,15,07,22,13.20
2017,08,15,07,23,13.20
2017,08,15,07,24,13.20
2017,08,15,07,25,13.20
2017,08,15,07,26,13.20
2017,08,15,07,27,13.20
2017,08,15,07,28,13.20
2017,08,15,07,29,13.20
2017,08,15,07,30,13.20
2017,08,15,07,31,13.30
2017,08,15,07,32,13.30
2017,08,15,07,33,13.30
2017,08,15,07,34,13.40
2017,08,15,07,35,13.50
2017,08,15,07,36,13.50
2017,08,15,07,37,13.60
2017,08,15,07,38,13.60
2017,08,15,07,39,13.70
2017,08,15,07,40,13.70
2017,08,15,07,41,13.80
2017,08,15,07,42,13.80
2017,08,15,07,43,13.90
2017,08,15,07,44,14.00
2017,08,15,07,45,14.20
2017,08,15,07,46,14.30
2017,08,15,07,47,14.40
2017,08,15,07,48,14.50
2017,08,15,07,49,14.70
2017,08,15,07,50,14.80
2017,08,15,07,51,15.00
2017,08,15,07,52,15.00
2017,08,15,07,53,15.00
2017,08,15,07,54,15.10
2017,08,15,07,55,15.20
2017,08,15,07,56,15.30
2017,08,15,07,57,15.40
2017,08,15,07,58,15.40
2017,08,15,07,59,15.50
2017,08,15,08,00,15.60
2017,08,15,08,01,15.70
2017,08,15,08,02,15.80
2017,08,15,08,03,15.80
2017,08,15,08,04,15.90
2017,08,15,08,05,16.00
2017,08,15,08,06,16.10
2017,08,15,08,07,16.10
2017,08,15,08,08,16.20
2017,08,15,08,09,16.30
2017,08,15,08,10,16.30
2017,08,15,08,11,16.40
2017,08,15,08,12,16.40
2017,08,15,08,13,16.50
2017,08,15,08,14,16.50
2017,08,15,08,15,16.60
2017,08,15,08,16,16.60
2017,08,15,08,17,16.60
2017,08,15,08,18,16.70
2017,08,15,08,19,16.70
2017,08,15,08,20,16.70
2017,08,15,08,21,16.70
2017,08,15,08,22,16.70
2017,08,15,08,23,16.70
2017,08,15,08,24,16.70
2017,08,15,08,25,16.70
2017,08,15,08,26,16.60
2017,08,15,08,27,16.60
2017,08,15,08,28,16.60
2017,08,15,08,29,16.60
2017,08,15,08,30,16.60
2017,08,15,08,31,16.60
2017,08,15,08,32,16.60
2017,08,15,08,33,16.60
2017,08,15,08,34,16.60
2017,08,15,08,35,16.70
2017,08,15,08,36,16.70
2017,08,15,08,37,16.70
2017,08,15,08,38,16.70
2017,08,15,08,39,16.80
2017,08,15,08,40,16.80
2017,08,15,08,41,16.80
2017,08,15,08,42,16.80
2017,08,15,08,43,16.80
2017,08,15,08,44,16.80
2017,08,15,08,45,16.80
2017,08,15,08,46,16.90
2017,08,15,08,47,16.90
2017,08,15,08,48,16.90
2017,08,15,08,49,17.00
2017,08,15,08,50,17.00
2017,08,15,08,51,17.10
2017,08,15,08,52,17.10
2017,08,15,08,53,17.10
2017,08,15,08,54,17.20
2017,08,15,08,55,17.30
2017,08,15,08,56,17.30
2017,08,15,08,57,17.40
2017,08,15,08,58,17.50
2017,08,15,08,59,17.50
2017,08,15,09,00,17.50
2017,08,15,09,01,17.60
2017,08,15,09,02,17.70
2017,08,15,09,03,17.80
2017,08,15,09,04,17.80
2017,08,15,09,05,17.90
2017,08,15,09,06,18.00
2017,08,15,09,07,18.00
2017,08,15,09,08,18.00
2017,08,15,09,09,17.90
2017,08,15,09,10,17.90
2017,08,15,09,11,17.90
2017,08,15,09,12,17.90
2017,08,15,09,13,17.90
2017,08,15,09,14,17.90
2017,08,15,09,15,17.90
2017,08,15,09,16,17.90
2017,08,15,09,17,17.90
2017,08,15,09,18,17.90
2017,08,15,09,19,17.90
2017,08,15,09,20,17.90
2017,08,15,09,21,17.90
2017,08,15,09,22,17.90
2017,08,15,09,23,17.90
2017,08,15,09,24,17.90
2017,08,15,09,25,17.90
2017,08,15,09,26,18.00
2017,08,15,09,27,18.10
2017,08,15,09,28,18.10
2017,08,15,09,29,18.00
2017,08,15,09,30,18.00
2017,08,15,09,31,18.00
2017,08,15,09,32,18.10
2017,08,15,09,33,18.10
2017,08,15,09,34,18.20
2017,08,15,09,35,18.10
2017,08,15,09,36,18.00
2017,08,15,09,37,18.00
2017,08,15,09,38,18.00
2017,08,15,09,39,18.00
2017,08,15,09,40,18.00
2017,08,15,09,41,18.00
2017,08,15,09,42,18.00
2017,08,15,09,43,18.00
2017,08,15,09,44,17.90
2017,08,15,09,45,17.90
2017,08,15,09,46,17.80
2017,08,15,09,47,17.70
2017,08,15,09,48,17.70
2017,08,15,09,49,17.70
2017,08,15,09,50,17.70
2017,08,15,09,51,17.70
2017,08,15,09,52,17.70
2017,08,15,09,53,17.60
2017,08,15,09,54,17.60
2017,08,15,09,55,17.70
2017,08,15,09,56,17.70
2017,08,15,09,57,17.70
2017,08,15,09,58,17.80
2017,08,15,09,59,17.80
2017,08,15,10,00,17.80
2017,08,15,10,01,17.90
2017,08,15,10,02,17.90
2017,08,15,10,03,17.90
2017,08,15,10,04,18.00
2017,08,15,10,05,18.10
2017,08,15,10,06,18.10
2017,08,15,10,07,18.20
2017,08,15,10,08,18.20
2017,08,15,10,09,18.20
2017,08,15,10,10,18.30
2017,08,15,10,11,18.30
2017,08,15,10,12,18.30
2017,08,15,10,13,18.40
2017,08,15,10,14,18.40
2017,08,15,10,15,18.40
2017,08,15,10,16,18.40
2017,08,15,10,17,18.50
2017,08,15,10,18,18.60
2017,08,15,10,19,18.60
2017,08,15,10,20,18.70
2017,08,15,10,21,18.70
2017,08,15,10,22,18.70
2017,08,15,10,23,18.80
2017,08,15,10,24,18.70
2017,08,15,10,25,18.70
2017,08,15,10,26,18.70
2017,08,15,10,27,18.70
2017,08,15,10,28,18.80
2017,08,15,10,29,18.80
2017,08,15,10,30,18.80
2017,08,15,10,31,18.70
2017,08,15,10,32,18.80
2017,08,15,10,33,18.80
2017,08,15,10,34,18.80
2017,08,15,10,35,18.80
2017,08,15,10,36,18.80
2017,08,15,10,37,18.80
2017,08,15,10,38,18.70
2017,08,15,10,39,18.60
2017,08,15,10,40,18.60
2017,08,15,10,41,18.50
2017,08,15,10,42,18.50
2017,08,15,10,43,18.50
2017,08,15,10,44,18.60
2017,08,15,10,45,18.60
2017,08,15,10,46,18.60
2017,08,15,10,47,18.60
2017,08,15,10,48,18.60
2017,08,15,10,49,18.60
2017,08,15,10,50,18.60
2017,08,15,10,51,18.70
2017,08,15,10,52,18.70
2017,08,15,10,53,18.70
2017,08,15,10,54,18.70
2017,08,15,10,55,18.60
2017,08,15,10,56,18.60
2017,08,15,10,57,18.60
2017,08,15,10,58,18.70
2017,08,15,10,59,18.70
2017,08,15,11,00,18.70
2017,08,15,11,01,18.70
2017,08,15,11,02,18.80
2017,08,15,11,03,18.80
2017,08,15,11,04,18.80
2017,08,15,11,05,18.80
2017,08,15,11,06,18.80
2017,08,15,11,07,18.90
2017,08,15,11,08,19.00
2017,08,15,11,09,19.00
2017,08,15,11,10,19.00
2017,08,15,11,11,19.10
2017,08,15,11,12,19.00
2017,08,15,11,13,19.00
2017,08,15,11,14,18.90
2017,08,15,11,15,18.80
2017,08,15,11,16,18.80
2017,08,15,11,17,18.70
2017,08,15,11,18,18.60
2017,08,15,11,19,18.60
2017,08,15,11,20,18.60
2017,08,15,11,21,18.50
2017,08,15,11,22,18.50
2017,08,15,11,23,18.40
2017,08,15,11,24,18.30
2017,08,15,11,25,18.30
2017,08,15,11,26,18.30
2017,08,15,11,27,18.30
2017,08,15,11,28,18.40
2017,08,15,11,29,18.40
2017,08,15,11,30,18.40
2017,08,15,11,31,18.40
2017,08,15,11,32,18.50
2017,08,15,11,33,18.70
2017,08,15,11,34,18.80
2017,08,15,11,35,18.90
2017,08,15,11,36,18.90
2017,08,15,11,37,19.00
2017,08,15,11,38,19.10
2017,08,15,11,39,19.30
2017,08,15,11,40,19.40
2017,08,15,11,41,19.50
2017,08,15,11,42,19.60
2017,08,15,11,43,19.60
2017,08,15,11,44,19.60
2017,08,15,11,45,19.50
2017,08,15,11,46,19.50
2017,08,15,11,47,19.40
2017,08,15,11,48,19.40
2017,08,15,11,49,19.50
2017,08,15,11,50,19.60
2017,08,15,11,51,19.50
2017,08,15,11,52,19.50
2017,08,15,11,53,19.30
2017,08,15,11,54,19.10
2017,08,15,11,55,19.10
2017,08,15,11,56,19.10
2017,08,15,11,57,19.10
2017,08,15,11,58,19.20
2017,08,15,11,59,19.20
2017,08,15,12,00,19.10
2017,08,15,12,01,19.20
2017,08,15,12,02,19.30
2017,08,15,12,03,19.20
2017,08,15,12,04,19.10
2017,08,15,12,05,19.10
2017,08,15,12,06,19.10
2017,08,15,12,07,19.10
2017,08,15,12,08,19.00
2017,08,15,12,09,19.00
2017,08,15,12,10,18.80
2017,08,15,12,11,18.80
2017,08,15,12,12,18.80
2017,08,15,12,13,18.90
2017,08,15,12,14,18.90
2017,08,15,12,15,19.00
2017,08,15,12,16,18.90
2017,08,15,12,17,18.90
2017,08,15,12,18,18.90
2017,08,15,12,19,18.90
2017,08,15,12,20,18.90
2017,08,15,12,21,18.90
2017,08,15,12,22,18.90
2017,08,15,12,23,18.80
2017,08,15,12,24,18.80
2017,08,15,12,25,18.80
2017,08,15,12,26,18.80
2017,08,15,12,27,18.70
2017,08,15,12,28,18.70
2017,08,15,12,29,18.70
2017,08,15,12,30,18.70
2017,08,15,12,31,18.80
2017,08,15,12,32,18.90
2017,08,15,12,33,19.00
2017,08,15,12,34,19.10
2017,08,15,12,35,19.10
2017,08,15,12,36,19.20
2017,08,15,12,37,19.20
2017,08,15,12,38,19.30
2017,08,15,12,39,19.30
2017,08,15,12,40,19.30
2017,08,15,12,41,19.20
2017,08,15,12,42,19.20
2017,08,15,12,43,19.20
2017,08,15,12,44,19.30
2017,08,15,12,45,19.20
2017,08,15,12,46,19.20
2017,08,15,12,47,19.30
2017,08,15,12,48,19.40
2017,08,15,12,49,19.40
2017,08,15,12,50,19.40
2017,08,15,12,51,19.40
2017,08,15,12,52,19.30
2017,08,15,12,53,19.20
2017,08,15,12,54,19.20
2017,08,15,12,55,19.20
2017,08,15,12,56,19.20
2017,08,15,12,57,19.30
2017,08,15,12,58,19.20
2017,08,15,12,59,19.20
2017,08,15,13,00,19.20
2017,08,15,13,01,19.10
2017,08,15,13,02,19.10
2017,08,15,13,03,19.10
2017,08,15,13,04,19.20
2017,08,15,13,05,19.20
2017,08,15,13,06,19.30
2017,08,15,13,07,19.40
2017,08,15,13,08,19.50
2017,08,15,13,09,19.60
2017,08,15,13,10,19.70
2017,08,15,13,11,19.80
2017,08,15,13,12,19.90
2017,08,15,13,13,19.90
2017,08,15,13,14,19.90
2017,08,15,13,15,19.80
2017,08,15,13,16,19.80
2017,08,15,13,17,19.80
2017,08,15,13,18,19.90
2017,08,15,13,19,19.90
2017,08,15,13,20,19.80
2017,08,15,13,21,19.90
2017,08,15,13,22,19.90
2017,08,15,13,23,19.90
2017,08,15,13,24,19.90
2017,08,15,13,25,19.80
2017,08,15,13,26,19.80
2017,08,15,13,27,19.80
2017,08,15,13,28,19.90
2017,08,15,13,29,19.90
2017,08,15,13,30,19.90
2017,08,15,13,31,19.90
2017,08,15,13,32,19.90
2017,08,15,13,33,19.90
2017,08,15,13,34,19.90
2017,08,15,13,35,19.90
2017,08,15,13,36,20.00
2017,08,15,13,37,20.00
2017,08,15,13,38,19.90
2017,08,15,13,39,19.90
2017,08,15,13,40,19.90
2017,08,15,13,41,19.90
2017,08,15,13,42,19.80
2017,08,15,13,43,19.80
2017,08,15,13,44,20.00
2017,08,15,13,45,20.10
2017,08,15,13,46,20.10
2017,08,15,13,47,20.00
2017,08,15,13,48,20.00
2017,08,15,13,49,19.90
2017,08,15,13,50,19.90
2017,08,15,13,51,20.00
2017,08,15,13,52,20.00
2017,08,15,13,53,20.10
2017,08,15,13,54,20.20
2017,08,15,13,55,20.30
2017,08,15,13,56,20.40
2017,08,15,13,57,20.40
2017,08,15,13,58,20.40
2017,08,15,13,59,20.40
2017,08,15,14,00,20.50
2017,08,15,14,01,20.50
2017,08,15,14,02,20.60
2017,08,15,14,03,20.60
2017,08,15,14,04,20.70
2017,08,15,14,05,20.70
2017,08,15,14,06,20.60
2017,08,15,14,07,20.50
2017,08,15,14,08,20.40
2017,08,15,14,09,20.40
2017,08,15,14,10,20.30
2017,08,15,14,11,20.30
2017,08,15,14,12,20.40
2017,08,15,14,13,20.60
2017,08,15,14,14,20.80
2017,08,15,14,15,20.90
2017,08,15,14,16,21.00
2017,08,15,14,17,21.10
2017,08,15,14,18,21.10
2017,08,15,14,19,21.20
2017,08,15,14,20,21.20
2017,08,15,14,21,21.30
2017,08,15,14,22,21.30
2017,08,15,14,23,21.30
2017,08,15,14,24,21.40
2017,08,15,14,25,21.30
2017,08,15,14,26,21.30
2017,08,15,14,27,21.20
2017,08,15,14,28,21.10
2017,08,15,14,29,21.00
2017,08,15,14,30,21.00
2017,08,15,14,31,20.90
2017,08,15,14,32,20.90
2017,08,15,14,33,21.00
2017,08,15,14,34,21.10
2017,08,15,14,35,21.20
2017,08,15,14,36,21.20
2017,08,15,14,37,21.30
2017,08,15,14,38,21.40
2017,08,15,14,39,21.40
2017,08,15,14,40,21.50
2017,08,15,14,41,21.40
2017,08,15,14,42,21.50
2017,08,15,14,43,21.60
2017,08,15,14,44,21.60
2017,08,15,14,45,21.70
2017,08,15,14,46,21.70
2017,08,15,14,47,21.80
2017,08,15,14,48,21.90
2017,08,15,14,49,22.00
2017,08,15,14,50,22.10
2017,08,15,14,51,22.10
2017,08,15,14,52,22.20
2017,08,15,14,53,22.20
2017,08,15,14,54,22.20
2017,08,15,14,55,22.10
2017,08,15,14,56,22.00
2017,08,15,14,57,22.00
2017,08,15,14,58,21.90
2017,08,15,14,59,21.90
2017,08,15,15,00,21.80
2017,08,15,15,01,21.80
2017,08,15,15,02,21.80
2017,08,15,15,03,21.80
2017,08,15,15,04,21.70
2017,08,15,15,05,21.80
2017,08,15,15,06,21.80
2017,08,15,15,07,21.70
2017,08,15,15,08,21.60
2017,08,15,15,09,21.50
2017,08,15,15,10,21.40
2017,08,15,15,11,21.50
2017,08,15,15,12,21.50
2017,08,15,15,13,21.60
2017,08,15,15,14,21.70
2017,08,15,15,15,21.80
2017,08,15,15,16,21.80
2017,08,15,15,17,21.80
2017,08,15,15,18,21.90
2017,08,15,15,19,21.90
2017,08,15,15,20,22.10
2017,08,15,15,21,22.20
2017,08,15,15,22,22.20
2017,08,15,15,23,22.20
2017,08,15,15,24,22.40
2017,08,15,15,25,22.50
2017,08,15,15,26,22.60
2017,08,15,15,27,22.60
2017,08,15,15,28,22.70
2017,08,15,15,29,22.70
2017,08,15,15,30,22.80
2017,08,15,15,31,22.90
2017,08,15,15,32,22.90
2017,08,15,15,33,22.80
2017,08,15,15,34,22.80
2017,08,15,15,35,22.80
2017,08,15,15,36,22.70
2017,08,15,15,37,22.70
2017,08,15,15,38,22.60
2017,08,15,15,39,22.60
2017,08,15,15,40,22.70
2017,08,15,15,41,22.70
2017,08,15,15,42,22.70
2017,08,15,15,43,22.70
2017,08,15,15,44,22.70
2017,08,15,15,45,22.70
2017,08,15,15,46,22.60
2017,08,15,15,47,22.60
2017,08,15,15,48,22.60
2017,08,15,15,49,22.70
2017,08,15,15,50,22.70
2017,08,15,15,51,22.80
2017,08,15,15,52,22.90
2017,08,15,15,53,23.00
2017,08,15,15,54,23.00
2017,08,15,15,55,23.00
2017,08,15,15,56,22.90
2017,08,15,15,57,22.90
2017,08,15,15,58,22.90
2017,08,15,15,59,22.90
2017,08,15,16,00,23.00
2017,08,15,16,01,23.00
2017,08,15,16,02,22.90
2017,08,15,16,03,23.00
2017,08,15,16,04,23.00
2017,08,15,16,05,23.00
2017,08,15,16,06,23.00
2017,08,15,16,07,23.10
2017,08,15,16,08,23.10
2017,08,15,16,09,23.10
2017,08,15,16,10,23.20
2017,08,15,16,11,23.20
2017,08,15,16,12,23.20
2017,08,15,16,13,23.20
2017,08,15,16,14,23.20
2017,08,15,16,15,23.10
2017,08,15,16,16,23.10
2017,08,15,16,17,23.00
2017,08,15,16,18,22.90
2017,08,15,16,19,22.90
2017,08,15,16,20,22.80
2017,08,15,16,21,22.90
2017,08,15,16,22,23.00
2017,08,15,16,23,23.00
2017,08,15,16,24,23.00
2017,08,15,16,25,22.90
2017,08,15,16,26,22.80
2017,08,15,16,27,22.80
2017,08,15,16,28,22.80
2017,08,15,16,29,22.80
2017,08,15,16,30,22.80
2017,08,15,16,31,22.80
2017,08,15,16,32,22.80
2017,08,15,16,33,22.80
2017,08,15,16,34,22.90
2017,08,15,16,35,23.00
2017,08,15,16,36,23.10
2017,08,15,16,37,23.10
2017,08,15,16,38,23.20
2017,08,15,16,39,23.20
2017,08,15,16,40,23.20
2017,08,15,16,41,23.30
2017,08,15,16,42,23.20
2017,08,15,16,43,23.20
2017,08,15,16,44,23.20
2017,08,15,16,45,23.10
2017,08,15,16,46,23.10
2017,08,15,16,47,23.10
2017,08,15,16,48,23.10
2017,08,15,16,49,23.10
2017,08,15,16,50,23.10
2017,08,15,16,51,23.20
2017,08,15,16,52,23.20
2017,08,15,16,53,23.20
2017,08,15,16,54,23.20
2017,08,15,16,55,23.30
2017,08,15,16,56,23.40
2017,08,15,16,57,23.50
2017,08,15,16,58,23.50
2017,08,15,16,59,23.50
2017,08,15,17,00,23.40
2017,08,15,17,01,23.40
2017,08,15,17,02,23.30
2017,08,15,17,03,23.30
2017,08,15,17,04,23.20
2017,08,15,17,05,23.20
2017,08,15,17,06,23.20
2017,08,15,17,07,23.20
2017,08,15,17,08,23.20
2017,08,15,17,09,23.20
2017,08,15,17,10,23.10
2017,08,15,17,11,23.10
2017,08,15,17,12,23.00
2017,08,15,17,13,23.00
2017,08,15,17,14,22.80
2017,08,15,17,15,22.80
2017,08,15,17,16,22.70
2017,08,15,17,17,22.70
2017,08,15,17,18,22.70
2017,08,15,17,19,22.70